Time,TemperatureF,DewpointF,PressureIn,WindDirection,WindDirectionDegrees,WindSpeedMPH,WindSpeedGustMPH,Humidity,HourlyPrecipIn,Conditions,Clouds,dailyrainin,SolarRadiationWatts/m^2,SoftwareType,DateUTC
2013-08-09 00:04:00,79.0,68.0,-100.00,SSW,195,5.0,9.0,70,0.00,,,0.08,415.000000,,2013-08-09 00:04:00,
2013-08-09 00:11:00,75.0,67.0,-100.00,South,189,2.0,10.0,76,0.00,,,0.08,221.000000,,2013-08-09 00:11:00,
2013-08-09 00:35:00,75.0,67.0,-100.00,South,189,2.0,10.0,76,0.00,,,0.08,221.000000,,2013-08-09 00:35:00,
2013-08-09 00:48:00,75.0,67.0,-100.00,South,189,2.0,10.0,76,0.00,,,0.08,221.000000,,2013-08-09 00:48:00,
2013-08-09 00:55:00,75.0,67.0,-100.00,South,189,2.0,10.0,76,0.00,,,0.08,221.000000,,2013-08-09 00:55:00,
2013-08-09 01:02:00,75.0,67.0,-100.00,South,189,2.0,10.0,76,0.00,,,0.08,221.000000,,2013-08-09 01:02:00,
2013-08-09 01:11:00,71.0,66.0,-100.00,SSW,195,3.0,6.0,84,0.00,,,0.08,55.000000,,2013-08-09 01:11:00,
2013-08-09 01:37:00,71.0,66.0,-100.00,SSW,195,3.0,6.0,84,0.00,,,0.08,55.000000,,2013-08-09 01:37:00,
2013-08-09 01:46:00,71.0,66.0,-100.00,SSW,195,3.0,6.0,84,0.00,,,0.08,55.000000,,2013-08-09 01:46:00,
2013-08-09 01:59:00,71.0,66.0,-100.00,SSW,195,3.0,6.0,84,0.00,,,0.08,55.000000,,2013-08-09 01:59:00,
2013-08-09 02:39:00,67.0,66.0,-100.00,NE,53,3.0,5.0,95,0.00,,,0.08,4.000000,,2013-08-09 02:39:00,
2013-08-09 02:47:00,67.0,66.0,-100.00,NE,53,3.0,5.0,95,0.00,,,0.08,4.000000,,2013-08-09 02:47:00,
2013-08-09 02:57:00,67.0,66.0,-100.00,NE,53,3.0,5.0,95,0.00,,,0.08,4.000000,,2013-08-09 02:57:00,
2013-08-09 03:05:00,67.0,66.0,-100.00,NE,53,3.0,5.0,95,0.00,,,0.08,4.000000,,2013-08-09 03:05:00,
2013-08-09 03:11:00,68.0,66.0,-100.00,NE,36,2.0,6.0,92,0.00,,,0.08,0.000000,,2013-08-09 03:11:00,
2013-08-09 03:35:00,68.0,66.0,-100.00,NE,36,2.0,6.0,92,0.00,,,0.08,0.000000,,2013-08-09 03:35:00,
2013-08-09 03:47:00,68.0,66.0,-100.00,NE,36,2.0,6.0,92,0.00,,,0.08,0.000000,,2013-08-09 03:47:00,
2013-08-09 03:56:00,68.0,66.0,-100.00,NE,36,2.0,6.0,92,0.00,,,0.08,0.000000,,2013-08-09 03:56:00,
2013-08-09 04:01:00,68.0,66.0,-100.00,NE,36,2.0,6.0,92,0.00,,,0.08,0.000000,,2013-08-09 04:01:00,
2013-08-09 04:11:00,63.0,62.0,-100.00,North,9,2.0,4.0,98,0.00,,,0.08,0.000000,,2013-08-09 04:11:00,
2013-08-09 04:33:00,63.0,62.0,-100.00,North,9,2.0,4.0,98,0.00,,,0.08,0.000000,,2013-08-09 04:33:00,
2013-08-09 04:43:00,63.0,62.0,-100.00,North,9,2.0,4.0,98,0.00,,,0.08,0.000000,,2013-08-09 04:43:00,
2013-08-09 04:53:00,63.0,62.0,-100.00,North,9,2.0,4.0,98,0.00,,,0.08,0.000000,,2013-08-09 04:53:00,
2013-08-09 05:02:00,63.0,62.0,-100.00,North,9,2.0,4.0,98,0.00,,,0.08,0.000000,,2013-08-09 05:02:00,
2013-08-09 05:11:00,63.0,63.0,-100.00,NNE,17,1.0,4.0,100,0.00,,,0.08,0.000000,,2013-08-09 05:11:00,
2013-08-09 05:33:00,63.0,63.0,-100.00,NNE,17,1.0,4.0,100,0.00,,,0.08,0.000000,,2013-08-09 05:33:00,
2013-08-09 05:43:00,63.0,63.0,-100.00,NNE,17,1.0,4.0,100,0.00,,,0.08,0.000000,,2013-08-09 05:43:00,
2013-08-09 05:52:00,63.0,63.0,-100.00,NNE,17,1.0,4.0,100,0.00,,,0.08,0.000000,,2013-08-09 05:52:00,
2013-08-09 06:01:00,63.0,63.0,-100.00,NNE,17,1.0,4.0,100,0.00,,,0.08,0.000000,,2013-08-09 06:01:00,
2013-08-09 06:11:00,63.0,63.0,-100.00,North,9,1.0,3.0,100,0.00,,,0.08,0.000000,,2013-08-09 06:11:00,
2013-08-09 06:32:00,63.0,63.0,-100.00,North,9,1.0,3.0,100,0.00,,,0.08,0.000000,,2013-08-09 06:32:00,
2013-08-09 06:43:00,63.0,63.0,-100.00,North,9,1.0,3.0,100,0.00,,,0.08,0.000000,,2013-08-09 06:43:00,
2013-08-09 06:52:00,63.0,63.0,-100.00,North,9,1.0,3.0,100,0.00,,,0.08,0.000000,,2013-08-09 06:52:00,
2013-08-09 07:01:00,63.0,63.0,-100.00,North,9,1.0,3.0,100,0.00,,,0.08,0.000000,,2013-08-09 07:01:00,
2013-08-09 07:11:00,62.0,62.0,-100.00,NNE,29,0.0,3.0,100,0.00,,,0.08,0.000000,,2013-08-09 07:11:00,
2013-08-09 07:33:00,62.0,62.0,-100.00,NNE,29,0.0,3.0,100,0.00,,,0.08,0.000000,,2013-08-09 07:33:00,
2013-08-09 07:43:00,62.0,62.0,-100.00,NNE,29,0.0,3.0,100,0.00,,,0.08,0.000000,,2013-08-09 07:43:00,
2013-08-09 07:53:00,62.0,62.0,-100.00,NNE,29,0.0,3.0,100,0.00,,,0.08,0.000000,,2013-08-09 07:53:00,
2013-08-09 08:02:00,62.0,62.0,-100.00,NNE,29,0.0,3.0,100,0.00,,,0.08,0.000000,,2013-08-09 08:02:00,
2013-08-09 08:11:00,61.0,61.0,-100.00,ESE,122,1.0,3.0,100,0.00,,,0.08,0.000000,,2013-08-09 08:11:00,
2013-08-09 08:32:00,61.0,61.0,-100.00,ESE,122,1.0,3.0,100,0.00,,,0.08,0.000000,,2013-08-09 08:32:00,
2013-08-09 08:43:00,61.0,61.0,-100.00,ESE,122,1.0,3.0,100,0.00,,,0.08,0.000000,,2013-08-09 08:43:00,
2013-08-09 08:53:00,61.0,61.0,-100.00,ESE,122,1.0,3.0,100,0.00,,,0.08,0.000000,,2013-08-09 08:53:00,
2013-08-09 09:02:00,61.0,61.0,-100.00,ESE,122,1.0,3.0,100,0.00,,,0.08,0.000000,,2013-08-09 09:02:00,
2013-08-09 09:11:00,62.0,62.0,-100.00,SSW,194,1.0,2.0,100,0.00,,,0.08,0.000000,,2013-08-09 09:11:00,
2013-08-09 09:32:00,62.0,62.0,-100.00,SSW,194,1.0,2.0,100,0.00,,,0.08,0.000000,,2013-08-09 09:32:00,
2013-08-09 09:43:00,62.0,62.0,-100.00,SSW,194,1.0,2.0,100,0.00,,,0.08,0.000000,,2013-08-09 09:43:00,
2013-08-09 09:52:00,62.0,62.0,-100.00,SSW,194,1.0,2.0,100,0.00,,,0.08,0.000000,,2013-08-09 09:52:00,
2013-08-09 10:01:00,62.0,62.0,-100.00,SSW,194,1.0,2.0,100,0.00,,,0.08,0.000000,,2013-08-09 10:01:00,
2013-08-09 10:11:00,60.0,60.0,-100.00,South,169,1.0,3.0,100,0.00,,,0.08,0.000000,,2013-08-09 10:11:00,
2013-08-09 10:32:00,60.0,60.0,-100.00,South,169,1.0,3.0,100,0.00,,,0.08,0.000000,,2013-08-09 10:32:00,
2013-08-09 10:43:00,60.0,60.0,-100.00,South,169,1.0,3.0,100,0.00,,,0.08,0.000000,,2013-08-09 10:43:00,
2013-08-09 10:53:00,60.0,60.0,-100.00,South,169,1.0,3.0,100,0.00,,,0.08,0.000000,,2013-08-09 10:53:00,
2013-08-09 11:02:00,60.0,60.0,-100.00,South,169,1.0,3.0,100,0.00,,,0.08,0.000000,,2013-08-09 11:02:00,
2013-08-09 11:11:00,62.0,62.0,-100.00,NNE,33,5.0,7.0,100,0.00,,,0.08,0.000000,,2013-08-09 11:11:00,
2013-08-09 11:33:00,62.0,62.0,-100.00,NNE,33,5.0,7.0,100,0.00,,,0.08,0.000000,,2013-08-09 11:33:00,
2013-08-09 11:43:00,62.0,62.0,-100.00,NNE,33,5.0,7.0,100,0.00,,,0.08,0.000000,,2013-08-09 11:43:00,
2013-08-09 11:53:00,62.0,62.0,-100.00,NNE,33,5.0,7.0,100,0.00,,,0.08,0.000000,,2013-08-09 11:53:00,
2013-08-09 12:02:00,62.0,62.0,-100.00,NNE,33,5.0,7.0,100,0.00,,,0.08,0.000000,,2013-08-09 12:02:00,
2013-08-09 12:11:00,62.0,62.0,-100.00,SSE,159,2.0,11.0,100,0.00,,,0.08,13.000000,,2013-08-09 12:11:00,
2013-08-09 12:32:00,62.0,62.0,-100.00,SSE,159,2.0,11.0,100,0.00,,,0.08,13.000000,,2013-08-09 12:32:00,
2013-08-09 12:43:00,62.0,62.0,-100.00,SSE,159,2.0,11.0,100,0.00,,,0.08,13.000000,,2013-08-09 12:43:00,
2013-08-09 12:52:00,62.0,62.0,-100.00,SSE,159,2.0,11.0,100,0.00,,,0.08,13.000000,,2013-08-09 12:52:00,
2013-08-09 13:01:00,62.0,62.0,-100.00,SSE,159,2.0,11.0,100,0.00,,,0.08,13.000000,,2013-08-09 13:01:00,
2013-08-09 13:11:00,65.0,65.0,-100.00,WSW,252,1.0,5.0,100,0.00,,,0.08,83.000000,,2013-08-09 13:11:00,
2013-08-09 13:32:00,65.0,65.0,-100.00,WSW,252,1.0,5.0,100,0.00,,,0.08,83.000000,,2013-08-09 13:32:00,
2013-08-09 13:43:00,65.0,65.0,-100.00,WSW,252,1.0,5.0,100,0.00,,,0.08,83.000000,,2013-08-09 13:43:00,
2013-08-09 13:52:00,65.0,65.0,-100.00,WSW,252,1.0,5.0,100,0.00,,,0.08,83.000000,,2013-08-09 13:52:00,
2013-08-09 14:02:00,65.0,65.0,-100.00,WSW,252,1.0,5.0,100,0.00,,,0.08,83.000000,,2013-08-09 14:02:00,
2013-08-09 14:11:00,69.0,64.0,-100.00,ENE,58,6.0,10.0,83,0.00,,,0.08,233.000000,,2013-08-09 14:11:00,
2013-08-09 14:33:00,69.0,64.0,-100.00,ENE,58,6.0,10.0,83,0.00,,,0.08,233.000000,,2013-08-09 14:33:00,
2013-08-09 14:43:00,69.0,64.0,-100.00,ENE,58,6.0,10.0,83,0.00,,,0.08,233.000000,,2013-08-09 14:43:00,
2013-08-09 14:53:00,69.0,64.0,-100.00,ENE,58,6.0,10.0,83,0.00,,,0.08,233.000000,,2013-08-09 14:53:00,
2013-08-09 15:02:00,69.0,64.0,-100.00,ENE,58,6.0,10.0,83,0.00,,,0.08,233.000000,,2013-08-09 15:02:00,
2013-08-09 15:11:00,73.0,65.0,-100.00,NE,48,4.0,10.0,75,0.00,,,-99.99,369.000000,,2013-08-09 15:11:00,
2013-08-09 15:33:00,73.0,65.0,-100.00,NE,48,4.0,10.0,75,0.00,,,-99.99,369.000000,,2013-08-09 15:33:00,
2013-08-09 15:44:00,73.0,65.0,-100.00,NE,48,4.0,10.0,75,0.00,,,-99.99,369.000000,,2013-08-09 15:44:00,
2013-08-09 15:53:00,73.0,65.0,-100.00,NE,48,4.0,10.0,75,0.00,,,-99.99,369.000000,,2013-08-09 15:53:00,
2013-08-09 16:01:00,73.0,65.0,-100.00,NE,48,4.0,10.0,75,0.00,,,-99.99,369.000000,,2013-08-09 16:01:00,
2013-08-09 16:11:00,76.0,62.0,-100.00,NNE,19,5.0,10.0,63,0.00,,,0.04,493.000000,,2013-08-09 16:11:00,
2013-08-09 16:32:00,76.0,62.0,-100.00,NNE,19,5.0,10.0,63,0.00,,,0.04,493.000000,,2013-08-09 16:32:00,
2013-08-09 16:43:00,76.0,62.0,-100.00,NNE,19,5.0,10.0,63,0.00,,,0.04,493.000000,,2013-08-09 16:43:00,
2013-08-09 16:53:00,76.0,62.0,-100.00,NNE,19,5.0,10.0,63,0.00,,,0.04,493.000000,,2013-08-09 16:53:00,
2013-08-09 17:02:00,76.0,62.0,-100.00,NNE,19,5.0,10.0,63,0.00,,,0.04,493.000000,,2013-08-09 17:02:00,
2013-08-09 17:11:00,78.0,62.0,-100.00,NNE,14,5.0,10.0,57,0.00,,,0.00,634.000000,,2013-08-09 17:11:00,
2013-08-09 17:33:00,78.0,62.0,-100.00,NNE,14,5.0,10.0,57,0.00,,,0.00,634.000000,,2013-08-09 17:33:00,
2013-08-09 17:43:00,78.0,62.0,-100.00,NNE,14,5.0,10.0,57,0.00,,,0.00,634.000000,,2013-08-09 17:43:00,
2013-08-09 17:52:00,78.0,62.0,-100.00,NNE,14,5.0,10.0,57,0.00,,,0.00,634.000000,,2013-08-09 17:52:00,
2013-08-09 18:01:00,78.0,62.0,-100.00,NNE,14,5.0,10.0,57,0.00,,,0.00,634.000000,,2013-08-09 18:01:00,
2013-08-09 18:11:00,79.0,59.0,-100.00,NNE,13,5.0,9.0,51,0.00,,,0.00,691.000000,,2013-08-09 18:11:00,
2013-08-09 18:32:00,79.0,59.0,-100.00,NNE,13,5.0,9.0,51,0.00,,,0.00,691.000000,,2013-08-09 18:32:00,
2013-08-09 18:43:00,79.0,59.0,-100.00,NNE,13,5.0,9.0,51,0.00,,,0.00,691.000000,,2013-08-09 18:43:00,
2013-08-09 18:53:00,79.0,59.0,-100.00,NNE,13,5.0,9.0,51,0.00,,,0.00,691.000000,,2013-08-09 18:53:00,
2013-08-09 19:02:00,79.0,59.0,-100.00,NNE,13,5.0,9.0,51,0.00,,,0.00,691.000000,,2013-08-09 19:02:00,
2013-08-09 19:11:00,80.0,60.0,-100.00,WNW,291,5.0,16.0,50,0.00,,,0.00,758.000000,,2013-08-09 19:11:00,
2013-08-09 19:32:00,80.0,60.0,-100.00,WNW,291,5.0,16.0,50,0.00,,,0.00,758.000000,,2013-08-09 19:32:00,
2013-08-09 19:43:00,80.0,60.0,-100.00,WNW,291,5.0,16.0,50,0.00,,,0.00,758.000000,,2013-08-09 19:43:00,
2013-08-09 19:52:00,80.0,60.0,-100.00,WNW,291,5.0,16.0,50,0.00,,,0.00,758.000000,,2013-08-09 19:52:00,
2013-08-09 20:02:00,80.0,60.0,-100.00,WNW,291,5.0,16.0,50,0.00,,,0.00,758.000000,,2013-08-09 20:02:00,
2013-08-09 20:11:00,81.0,54.0,-100.00,NE,54,5.0,10.0,39,0.00,,,0.00,767.000000,,2013-08-09 20:11:00,
2013-08-09 20:32:00,81.0,54.0,-100.00,NE,54,5.0,10.0,39,0.00,,,0.00,767.000000,,2013-08-09 20:32:00,
2013-08-09 20:43:00,81.0,54.0,-100.00,NE,54,5.0,10.0,39,0.00,,,0.00,767.000000,,2013-08-09 20:43:00,
2013-08-09 20:52:00,81.0,54.0,-100.00,NE,54,5.0,10.0,39,0.00,,,0.00,767.000000,,2013-08-09 20:52:00,
2013-08-09 21:01:00,81.0,54.0,-100.00,NE,54,5.0,10.0,39,0.00,,,0.00,767.000000,,2013-08-09 21:01:00,
2013-08-09 21:11:00,83.0,59.0,-100.00,NW,323,4.0,13.0,44,0.00,,,0.00,674.000000,,2013-08-09 21:11:00,
2013-08-09 21:43:00,83.0,59.0,-100.00,NW,323,4.0,13.0,44,0.00,,,0.00,674.000000,,2013-08-09 21:43:00,
2013-08-09 21:52:00,83.0,59.0,-100.00,NW,323,4.0,13.0,44,0.00,,,0.00,674.000000,,2013-08-09 21:52:00,
2013-08-09 22:01:00,83.0,59.0,-100.00,NW,323,4.0,13.0,44,0.00,,,0.00,674.000000,,2013-08-09 22:01:00,
2013-08-09 22:11:00,82.0,57.0,-100.00,NNE,21,4.0,9.0,42,0.00,,,0.00,610.000000,,2013-08-09 22:11:00,
2013-08-09 22:32:00,82.0,57.0,-100.00,NNE,21,4.0,9.0,42,0.00,,,0.00,610.000000,,2013-08-09 22:32:00,
2013-08-09 22:43:00,82.0,57.0,-100.00,NNE,21,4.0,9.0,42,0.00,,,0.00,610.000000,,2013-08-09 22:43:00,
2013-08-09 22:52:00,82.0,57.0,-100.00,NNE,21,4.0,9.0,42,0.00,,,0.00,610.000000,,2013-08-09 22:52:00,
2013-08-09 23:01:00,82.0,57.0,-100.00,NNE,21,4.0,9.0,42,0.00,,,0.00,610.000000,,2013-08-09 23:01:00,
2013-08-09 23:11:00,81.0,56.0,-100.00,ENE,62,2.0,9.0,42,0.00,,,0.00,382.000000,,2013-08-09 23:11:00,
2013-08-09 23:32:00,81.0,56.0,-100.00,ENE,62,2.0,9.0,42,0.00,,,0.00,382.000000,,2013-08-09 23:32:00,
2013-08-09 23:43:00,81.0,56.0,-100.00,ENE,62,2.0,9.0,42,0.00,,,0.00,382.000000,,2013-08-09 23:43:00,
2013-08-09 23:52:00,81.0,56.0,-100.00,ENE,62,2.0,9.0,42,0.00,,,0.00,382.000000,,2013-08-09 23:52:00,